This is the latest recevied weather packets stored in our database for station/object DG4DAZ-6. If no packets are shown the sender has not sent any weather packets the latest 10 day(s).
| Time | Temp. | Humidity | Pressure | Rain* | Wind** | Luminosity | Snow |
|---|---|---|---|---|---|---|---|
| 1777746684 | 17.22° C | 73% | 1013.7 hPa | 0.51 mm | - | 6 W/m² | - |
| 1777746083 | 17.78° C | 69% | 1013.8 hPa | 0.51 mm | - | 7 W/m² | - |
| 1777745482 | 18.33° C | 62% | 1013.9 hPa | 0.25 mm | - | 0 W/m² | - |
| 1777744883 | 19.44° C | 68% | 1014.7 hPa | 0 mm | - | 0 W/m² | - |
| 1777744283 | 19.44° C | 62% | 1014.2 hPa | 0 mm | - | 8 W/m² | - |
| 1777743683 | 20° C | 62% | 1013.7 hPa | 0 mm | - | 27 W/m² | - |
| 1777743082 | 20.56° C | 60% | 1013.7 hPa | 0 mm | - | 40 W/m² | - |
| 1777742484 | 20.56° C | 59% | 1013.7 hPa | 0 mm | - | 53 W/m² | - |
| 1777741883 | 21.11° C | 59% | 1013.8 hPa | 0 mm | - | 84 W/m² | - |
| 1777741283 | 21.11° C | 58% | 1013.9 hPa | 0 mm | - | 84 W/m² | - |
| 1777740682 | 21.11° C | 56% | 1014 hPa | 0 mm | - | 122 W/m² | - |
| 1777740084 | 21.11° C | 56% | 1014.1 hPa | 0 mm | - | 127 W/m² | - |
| 1777739484 | 21.11° C | 56% | 1014.2 hPa | 0 mm | - | 110 W/m² | - |
| 1777738883 | 21.11° C | 55% | 1014.3 hPa | 0 mm | - | 116 W/m² | - |
| 1777738282 | 21.11° C | 55% | 1014.5 hPa | 0 mm | - | 128 W/m² | - |
| 1777737682 | 21.11° C | 57% | 1014.7 hPa | 0 mm | - | 166 W/m² | - |
| 1777737084 | 21.11° C | 57% | 1014.8 hPa | 0 mm | - | 183 W/m² | - |
| 1777736484 | 21.11° C | 60% | 1014.9 hPa | 0 mm | - | 174 W/m² | - |
| 1777735883 | 20.56° C | 59% | 1014.7 hPa | 0 mm | - | 161 W/m² | - |
| 1777735282 | 20.56° C | 58% | 1015 hPa | 0 mm | - | 73 W/m² | - |
| 1777734684 | 21.11° C | 55% | 1015.3 hPa | 0 mm | - | 51 W/m² | - |
| 1777734082 | 21.67° C | 50% | 1015.4 hPa | 0 mm | - | 97 W/m² | - |
| 1777733484 | 22.22° C | 47% | 1015.5 hPa | 0 mm | - | 112 W/m² | - |
| 1777732884 | 22.22° C | 47% | 1015.7 hPa | 0 mm | - | 121 W/m² | - |
| 1777732283 | 22.78° C | 47% | 1015.8 hPa | 0 mm | - | 151 W/m² | - |
* Rain latest hour (hover to see other rain measurements)
** Current wind speed in m/s (hover to see current wind gust speed)